Home   Weather   Lille   Past weeks

Flag for France Past Weather in Lille, Nord-Pas-de-Calais, France — Yesterday and Last 2 Weeks

Now
64 °F

Clear.


Feels Like: 64 °F
Forecast: 58 / 68 °F
Wind: 14 mph from West

Location: Lille Airport

Current Time: Jul 27, 2017 at 11:00:44 pm

Latest Report: Jul 27, 2017 at 10:00 pm


Visibility: 10 mi

Pressure: 29.80 "Hg

Humidity: 60%

Dew Point: 50 °F

Location of LilleLocation

Past Weather in Lille — Graph

°F

Lille Temperature Yesterday

Maximum temperature yesterday: 79 °F (at 2:00 pm)
Minimum temperature yesterday: 52 °F (at 6:00 am)
Average temperature yesterday: 65 °F

High & Low Weather Summary for the Past Weeks

 TemperatureHumidityPressure
High88 °F (Jul 18, 4:00 pm)100% (Jul 17, 7:00 am)30.24 "Hg (Jul 17, 7:00 am)
Low48 °F (Jul 13, 5:30 am)32% (Jul 21, 4:00 pm)29.71 "Hg (Jul 19, 5:30 pm)
Average66 °F67%29.97 "Hg
* Reported Jul 12 9:00 pm — Jul 27 9:30 pm, Lille. Weather by CustomWeather, © 2017

Note: Actual official high and low records may vary slightly from our data, if they occured in-between our weather recording intervals... More about our weather records

Advertising

Lille Weather History for the Previous 24 Hours

Scroll right to see more
 ConditionsComfort  
Time TempWeatherWind HumidityBarometerVisibility
9:30 pm
Thu, Jul 27
64 °FOvercast.16 mph60%29.80 "HgN/A
9:00 pm66 °FSunny.16 mph56%29.77 "Hg10 mi
8:30 pm66 °FSunny.15 mph56%29.77 "Hg10 mi
8:00 pm68 °FOvercast.17 mph49%29.77 "HgN/A
7:30 pm70 °FSunny.17 mph46%29.77 "Hg10 mi
7:00 pm70 °FBroken clouds.16 mph43%29.77 "HgN/A
6:30 pm72 °FSunny.17 mph44%29.77 "Hg10 mi
6:00 pm72 °FPassing clouds.16 mph41%29.77 "HgN/A
5:30 pm72 °FSunny.15 mph41%29.77 "Hg10 mi
5:00 pm72 °FPassing clouds.14 mph41%29.77 "HgN/A
4:30 pm72 °FPassing clouds.16 mph44%29.77 "HgN/A
4:00 pm72 °FPassing clouds.14 mph44%29.77 "HgN/A
3:30 pm72 °FBroken clouds.13 mph44%29.77 "HgN/A
3:00 pm70 °FBroken clouds.12 mph46%29.77 "HgN/A
2:30 pm70 °FBroken clouds.12 mph46%29.77 "HgN/A
2:00 pm68 °FBroken clouds.12 mph53%29.77 "HgN/A
1:30 pm68 °FBroken clouds.8 mph56%29.77 "HgN/A
1:00 pm68 °FMostly cloudy.10 mph56%29.80 "HgN/A
12:30 pm68 °FMostly cloudy.12 mph56%29.80 "HgN/A
12:00 pm68 °FBroken clouds.12 mph56%29.77 "HgN/A
11:30 am66 °FPartly sunny.12 mph64%29.80 "HgN/A
11:00 am66 °FPartly sunny.10 mph64%29.80 "HgN/A
10:30 am64 °FPartly sunny.13 mph68%29.80 "HgN/A
10:00 am64 °FPartly sunny.12 mph73%29.80 "HgN/A
9:30 am63 °FBroken clouds.10 mph77%29.77 "HgN/A
9:00 am63 °FSunny.12 mph77%29.80 "Hg10 mi
8:30 am61 °FSunny.8 mph88%29.77 "Hg10 mi
8:00 am61 °FSunny.7 mph88%29.77 "Hg10 mi
7:30 am59 °FPassing clouds.6 mph94%29.77 "HgN/A
7:00 am59 °FSunny.6 mph94%29.77 "Hg10 mi
6:30 am59 °FSunny.8 mph94%29.77 "Hg10 mi
6:00 am59 °FOvercast.7 mph94%29.77 "HgN/A
5:30 am59 °FPassing clouds.7 mph94%29.77 "HgN/A
5:00 am61 °FMostly cloudy.8 mph88%29.77 "HgN/A
4:30 am61 °FPassing clouds.8 mph88%29.77 "HgN/A
4:00 am61 °FPassing clouds.13 mph88%29.77 "HgN/A
3:30 am63 °FPartly cloudy.14 mph88%29.77 "HgN/A
3:00 am63 °FMostly cloudy.10 mph94%29.77 "HgN/A
2:30 am64 °FMostly cloudy.12 mph88%29.77 "HgN/A
2:00 am64 °FPassing clouds.13 mph94%29.77 "HgN/A
1:30 am66 °FPassing clouds.8 mph88%29.77 "HgN/A
1:00 am66 °FPassing clouds.8 mph88%29.77 "HgN/A
12:30 am66 °FMostly cloudy.8 mph94%29.77 "HgN/A
12:00 am64 °FPassing clouds.9 mph94%29.77 "HgN/A
11:30 pm
Wed, Jul 26
66 °FLight rain. Fog.6 mph94%29.77 "Hg2 mi
11:00 pm66 °FPartly cloudy.8 mph94%29.77 "HgN/A
Weather by CustomWeather, © 2017

See weather overviewHow to use our weather pages